User: anonymous   Login
Location: *
(58.7167°N, 26.1833°E)
Time: 03:15:43
(UTC+00:00)
Language:

Cosmos 1980 Rocket - Orbit

View from above orbital plane
View from above orbital plane
View from above satellite
View from above satellite

Ground track
Ground track

The orbit data is extracted from the following two-line orbital elements,

1 19650U 88102B   19288.68230702  .00000113  00000-0  81977-4 0  9997
2 19650  71.0018  26.7102 0015598 321.2601  38.7402 14.15782086596377
Epoch (UTC): 15 October 2019 16:22:31
Eccentricity: 0.0015598
inclination: 71.0018°
perigee height: 828 km
apogee height: 851 km
right ascension of ascending node: 26.7102°
argument of perigee: 321.2601°
revolutions per day: 14.15782086
mean anomaly at epoch: 38.7402°
orbit number at epoch: 59637

The dashed part of the orbit path shows where the satellite is in the earth's shadow,  

DLR